FW9036 Weather Reports


time (UTC)temp
F
wind
direction
speed
knots
gust
knots
rain 1hr
in
rain 24hr
in
rain mn
in
humidity
%
barometer
mb
20260906211713 77 155 0.9 2.6 0.02 0.10 0.10 91 1008.9
20260906211208 77 161 1.7 4.3 0.02 0.10 0.10 91 1009.0
20260906210703 77 340 1.7 8.7 0.00 0.09 0.09 90 1009.4
20260906210203 77 298 5.2 6.1 0.00 0.09 0.09 90 1009.5
20260906205658 77 334 0.9 3.5 0.00 0.09 0.09 89 1008.6
20260906205155 77 197 0.0 1.7 0.00 0.09 0.09 90 1008.4
20260906204655 77 10 1.7 1.7 0.00 0.09 0.09 92 1008.0
20260906204154 77 27 0.9 3.5 0.00 0.09 0.09 92 1008.2
20260906203654 77 161 0.0 1.7 0.00 0.09 0.09 90 1008.3
20260906203149 77 196 0.0 2.6 0.00 0.09 0.09 89 1008.6
20260906202646 77 274 2.6 2.6 0.00 0.09 0.09 90 1008.5
20260906202145 77 315 0.0 2.6 0.00 0.09 0.09 91 1008.1
20260906201641 78 90 2.6 3.5 0.00 0.09 0.09 90 1008.4
20260906201139 78 122 0.9 3.5 0.02 0.09 0.09 90 1008.5
20260906200636 79 68 0.9 2.6 0.02 0.09 0.09 91 1008.8
20260906200132 79 91 2.6 2.6 0.12 0.09 0.09 91 1009.1
20260906195627 79 49 2.6 3.5 0.17 0.09 0.09 90 1009.2
20260906195123 80 81 1.7 2.6 0.14 0.07 0.07 90 1009.1
20260906194619 81 154 0.9 0.9 0.12 0.06 0.06 88 1009.3
20260906194114 81 224 0.0 2.6 0.07 0.04 0.04 87 1009.1
20260906193609 83 194 1.7 1.7 0.24 0.04 0.04 81 1008.9
20260906193104 85 157 0.9 2.6 0.17 0.03 0.03 76 1008.8
20260906192600 86 123 1.7 3.5 0.00 0.00 0.00 69 1009.1
20260906192058 87 96 1.7 2.6 0.00 0.00 0.00 66 1009.2
20260906191554 88 90 3.5 3.5 0.00 0.00 0.00 67 1009.2
20260906191053 88 97 3.5 4.3 0.00 0.00 0.00 67 1008.6
20260906190552 88 48 3.5 4.3 0.00 0.00 0.00 66 1008.8
20260906190048 89 84 2.6 4.3 0.00 0.00 0.00 65 1008.9
20260906185546 90 79 2.6 5.2 0.00 0.00 0.00 62 1009.1
20260906185045 92 55 5.2 9.6 0.00 0.00 0.00 62 1009.2
20260906184541 94 51 3.5 4.3 0.00 0.00 0.00 57 1009.1
20260906184036 95 92 2.6 3.5 0.00 0.00 0.00 56 1009.2
20260906183532 95 112 2.6 3.5 0.00 0.00 0.00 59 1009.0
20260906183028 93 121 1.7 3.5 0.00 0.00 0.00 58 1009.1
20260906182523 92 111 2.6 3.5 0.00 0.00 0.00 60 1009.2
20260906182019 92 91 1.7 2.6 0.00 0.00 0.00 60 1009.0
20260906181514 93 97 1.7 2.6 0.00 0.00 0.00 62 1009.2
20260906181010 93 80 2.6 3.5 0.00 0.00 0.00 60 1009.5
20260906180505 93 104 2.6 2.6 0.00 0.00 0.00 59 1009.4
20260906180003 93 142 2.6 3.5 0.00 0.00 0.00 60 1009.4
20260906175457 92 341 0.0 1.7 0.00 0.00 0.00 60 1009.3
20260906174956 92 159 1.7 2.6 0.00 0.00 0.00 60 1009.4
20260906174455 92 102 0.0 2.6 0.00 0.00 0.00 60 1009.9
20260906173950 93 66 2.6 3.5 0.00 0.00 0.00 59 1009.7
20260906173446 92 108 1.7 2.6 0.00 0.00 0.00 59 1009.9
20260906172945 93 38 3.5 4.3 0.00 0.00 0.00 58 1009.7
20260906172442 93 87 2.6 3.5 0.00 0.00 0.00 59 1009.7
20260906171936 93 43 2.6 2.6 0.00 0.00 0.00 57 1009.9
20260906171431 93 300 1.7 2.6 0.00 0.00 0.00 57 1010.1
20260906170927 94 286 1.7 5.2 0.00 0.00 0.00 57 1010.0
20260906170423 93 135 2.6 3.5 0.00 0.00 0.00 59 1010.0
20260906165920 94 45 3.5 6.1 0.00 0.00 0.00 57 1010.0
20260906165419 93 60 1.7 3.5 0.00 0.00 0.00 58 1010.0
20260906164914 94 259 0.0 3.5 0.00 0.00 0.00 57 1010.3
20260906164412 93 150 1.7 4.3 0.00 0.00 0.00 61 1010.2
20260906163909 93 127 5.2 5.2 0.00 0.00 0.00 60 1010.3
20260906163405 93 59 1.7 3.5 0.00 0.00 0.00 60 1010.3
20260906162902 93 70 1.7 3.5 0.00 0.00 0.00 61 1010.6
20260906162401 92 141 3.5 3.5 0.00 0.00 0.00 61 1010.5
20260906161856 92 303 2.6 3.5 0.00 0.00 0.00 62 1010.4
20260906161355 91 321 4.3 4.3 0.00 0.00 0.00 63 1010.4
20260906160855 91 247 1.7 3.5 0.00 0.00 0.00 62 1010.8
20260906160349 91 81 1.7 4.3 0.00 0.00 0.00 61 1010.6
20260906155847 91 43 2.6 3.5 0.00 0.00 0.00 63 1010.7
20260906155341 90 121 2.6 3.5 0.00 0.00 0.00 65 1010.9
20260906154837 90 301 3.5 3.5 0.00 0.00 0.00 65 1010.9
20260906154326 90 91 2.6 2.6 0.00 0.00 0.00 66 1011.2
20260906153825 90 12 0.9 5.2 0.00 0.00 0.00 68 1010.8
20260906153324 89 40 0.9 2.6 0.00 0.00 0.00 66 1011.1
20260906152819 89 343 2.6 3.5 0.00 0.00 0.00 67 1011.1
20260906152314 89 355 1.7 2.6 0.00 0.00 0.00 68 1011.1
20260906151814 89 31 3.5 4.3 0.00 0.00 0.00 68 1011.1
20260906151309 88 356 2.6 4.3 0.00 0.00 0.00 69 1011.2
20260906150805 88 74 1.7 2.6 0.00 0.00 0.00 71 1010.8
20260906150300 87 228 0.9 2.6 0.00 0.00 0.00 72 1011.0
20260906145759 87 33 1.7 2.6 0.00 0.00 0.00 74 1011.0
20260906145258 87 266 0.0 3.5 0.00 0.00 0.00 73 1010.9
20260906144753 86 323 1.7 4.3 0.00 0.00 0.00 76 1010.6
20260906144248 86 340 1.7 4.3 0.00 0.00 0.00 76 1011.0
20260906143747 86 295 4.3 4.3 0.00 0.00 0.00 76 1011.1
20260906143245 85 306 2.6 4.3 0.00 0.00 0.00 76 1010.9
20260906142744 85 228 1.7 4.3 0.00 0.00 0.00 78 1010.9
20260906142240 86 112 0.9 3.5 0.00 0.00 0.00 77 1010.7
20260906141738 85 66 0.0 2.6 0.00 0.00 0.00 77 1010.8
20260906141233 85 359 1.7 3.5 0.00 0.00 0.00 79 1010.7
20260906140732 84 41 1.7 2.6 0.00 0.00 0.00 79 1010.7
20260906140227 84 36 1.7 2.6 0.00 0.00 0.00 80 1010.6
20260906135724 84 89 0.9 1.7 0.00 0.00 0.00 82 1010.6
20260906135221 83 132 0.9 2.6 0.00 0.00 0.00 81 1010.8
20260906134716 83 111 1.7 3.5 0.00 0.00 0.00 82 1010.9
20260906134211 83 12 1.7 3.5 0.00 0.00 0.00 82 1011.1
20260906133707 83 350 0.9 2.6 0.00 0.00 0.00 83 1011.0
20260906133202 83 100 1.7 2.6 0.00 0.00 0.00 83 1010.9
20260906132657 82 105 0.0 2.6 0.00 0.00 0.00 85 1011.0
20260906132152 82 43 0.0 3.5 0.00 0.00 0.00 84 1011.0
20260906131648 82 112 0.0 3.5 0.00 0.00 0.00 86 1011.2
20260906131143 81 38 0.9 2.6 0.00 0.00 0.00 86 1011.2
20260906130638 81 132 1.7 3.5 0.00 0.00 0.00 86 1011.0
20260906130133 81 240 1.7 2.6 0.00 0.00 0.00 87 1011.3
20260906125631 80 42 0.0 3.5 0.00 0.00 0.00 87 1011.1
20260906125130 80 61 0.0 2.6 0.00 0.00 0.00 89 1011.2
20260906124626 80 73 0.0 1.7 0.00 0.00 0.00 89 1011.0
20260906124121 80 156 0.0 3.5 0.00 0.00 0.00 89 1010.8
20260906123620 79 0 0.0 1.7 0.00 0.00 0.00 90 1010.6
20260906123115 79 3 0.0 2.6 0.00 0.00 0.00 90 1010.9
20260906122614 79 280 0.9 4.3 0.00 0.00 0.00 89 1010.8
20260906122110 79 84 0.0 1.7 0.00 0.00 0.00 90 1010.7
20260906121606 79 278 0.9 2.6 0.00 0.00 0.00 90 1010.9
20260906121102 78 21 0.0 2.6 0.00 0.00 0.00 91 1010.9
20260906120557 78 34 0.9 1.7 0.00 0.00 0.00 91 1010.8
20260906120055 78 325 0.0 2.6 0.00 0.00 0.00 91 1011.0
20260906115555 78 235 0.0 2.6 0.00 0.00 0.00 91 1010.9
20260906115050 78 299 0.0 1.7 0.00 0.00 0.00 92 1011.0
20260906114550 78 341 0.0 0.9 0.00 0.00 0.00 92 1010.8
20260906114045 78 10 0.0 0.9 0.00 0.00 0.00 92 1010.9
20260906113544 78 144 0.0 0.9 0.00 0.00 0.00 91 1011.0
20260906113039 78 20 0.9 0.9 0.00 0.00 0.00 91 1010.9
20260906112534 78 318 0.0 0.0 0.00 0.00 0.00 91 1010.8
20260906112031 78 110 0.0 0.9 0.00 0.00 0.00 91 1010.6
20260906111530 78 162 0.9 1.7 0.00 0.00 0.00 91 1010.6
20260906111026 78 310 1.7 2.6 0.00 0.00 0.00 91 1010.4
20260906110525 78 359 0.0 0.9 0.00 0.00 0.00 91 1010.1
20260906110025 78 291 0.0 0.9 0.00 0.00 0.00 91 1010.2
20260906105520 78 100 0.0 1.7 0.00 0.00 0.00 91 1010.0
20260906105016 78 165 0.9 1.7 0.00 0.00 0.00 91 1010.1
20260906104514 78 176 0.9 2.6 0.00 0.00 0.00 91 1010.1
20260906104009 79 135 1.7 2.6 0.00 0.00 0.00 90 1009.9
20260906103507 79 178 0.0 1.7 0.00 0.00 0.00 90 1009.9
20260906103003 79 79 1.7 2.6 0.00 0.00 0.00 90 1009.9
20260906102503 79 114 0.9 1.7 0.00 0.00 0.00 90 1009.9
20260906102003 79 198 0.0 1.7 0.00 0.00 0.00 90 1010.0
20260906101457 79 80 0.0 1.7 0.00 0.00 0.00 90 1009.8
20260906100952 79 164 0.9 1.7 0.00 0.00 0.00 90 1009.7
20260906100447 79 94 0.0 2.6 0.00 0.00 0.00 90 1009.6
20260906095942 79 116 0.0 0.9 0.00 0.00 0.00 90 1009.7
20260906095437 79 96 0.9 1.7 0.00 0.00 0.00 90 1009.6
20260906094932 79 123 0.9 2.6 0.00 0.00 0.00 90 1009.8
20260906094426 79 301 1.7 2.6 0.00 0.00 0.00 90 1009.7
20260906093922 79 318 0.0 1.7 0.00 0.00 0.00 90 1009.9
20260906093418 79 46 0.0 4.3 0.00 0.00 0.00 90 1009.7
20260906092913 79 289 1.7 2.6 0.00 0.00 0.00 90 1009.9
20260906092413 79 40 0.9 2.6 0.00 0.00 0.00 90 1009.9
20260906091908 79 189 0.0 1.7 0.00 0.00 0.00 90 1009.5
20260906091404 79 56 0.0 0.9 0.00 0.00 0.00 90 1009.7
20260906090900 79 110 0.0 1.7 0.00 0.00 0.00 89 1009.8
20260906090400 79 223 0.0 0.9 0.00 0.00 0.00 89 1009.6
20260906085854 80 167 0.0 0.9 0.00 0.00 0.00 89 1009.9
20260906085354 79 85 0.0 1.7 0.00 0.00 0.00 89 1009.6
20260906084848 80 81 0.9 1.7 0.00 0.00 0.00 89 1009.6
20260906084348 80 61 0.0 1.7 0.00 0.00 0.00 89 1009.8
20260906083843 80 297 1.7 1.7 0.00 0.00 0.00 88 1009.8
20260906083338 80 123 1.7 1.7 0.00 0.00 0.00 89 1009.4
20260906082832 80 125 0.0 2.6 0.00 0.00 0.00 88 1009.5
20260906082327 80 291 0.0 1.7 0.00 0.00 0.00 88 1009.5
20260906081823 80 154 2.6 2.6 0.00 0.00 0.00 88 1009.4
20260906081319 80 18 0.9 2.6 0.00 0.00 0.00 88 1009.6
20260906080815 80 280 0.0 1.7 0.00 0.00 0.00 88 1009.6
20260906080311 80 18 0.0 0.0 0.00 0.00 0.00 88 1009.5
20260906075810 80 271 0.0 1.7 0.00 0.00 0.00 89 1009.5
20260906075310 79 36 0.0 1.7 0.00 0.00 0.00 89 1009.6
20260906074806 79 274 0.0 1.7 0.00 0.00 0.00 89 1009.6
20260906074305 79 70 0.0 0.9 0.00 0.00 0.00 89 1009.7
20260906073804 80 227 0.0 0.0 0.00 0.00 0.00 89 1009.5
20260906073259 80 31 0.0 0.9 0.00 0.00 0.00 89 1009.6
20260906072755 80 250 0.0 0.9 0.00 0.00 0.00 89 1009.6
20260906072250 80 144 0.0 0.9 0.00 0.00 0.00 88 1009.6
20260906071747 80 86 0.0 0.9 0.00 0.00 0.00 88 1009.5
20260906071246 80 49 0.0 2.6 0.00 0.00 0.00 88 1009.7
20260906070743 80 70 0.0 1.7 0.00 0.00 0.00 88 1009.7
20260906070238 80 9 0.9 1.7 0.00 0.00 0.00 88 1009.5
20260906065738 80 324 0.9 1.7 0.00 0.00 0.00 88 1009.7
20260906065233 80 198 0.0 0.9 0.00 0.00 0.00 88 1009.7
20260906064729 80 281 2.6 2.6 0.00 0.00 0.00 88 1009.7
20260906064224 80 85 0.0 0.9 0.00 0.00 0.00 89 1009.5
20260906063719 80 125 0.9 0.9 0.00 0.00 0.00 89 1009.7
20260906063215 80 275 0.0 1.7 0.00 0.00 0.00 88 1009.9
20260906062710 80 123 0.0 2.6 0.00 0.00 0.00 88 1009.6
20260906062209 80 211 0.0 1.7 0.00 0.00 0.00 88 1009.8
20260906061705 80 198 0.0 1.7 0.00 0.00 0.00 88 1010.1
20260906061201 81 164 0.9 1.7 0.00 0.00 0.00 88 1009.9
20260906060657 81 262 1.7 1.7 0.00 0.00 0.00 87 1010.2
20260906060154 81 2 0.0 0.9 0.00 0.00 0.00 87 1009.9
20260906055649 81 162 0.9 1.7 0.00 0.00 0.00 87 1009.9
20260906055144 81 223 0.0 2.6 0.00 0.00 0.00 87 1010.3
20260906054640 81 138 1.7 1.7 0.00 0.00 0.00 86 1010.1
20260906054135 81 315 0.0 1.7 0.00 0.00 0.00 86 1010.4
20260906053631 82 89 0.0 0.9 0.00 0.00 0.00 86 1010.2
20260906053126 82 335 0.0 1.7 0.00 0.00 0.00 86 1010.3
20260906052621 82 39 0.9 1.7 0.00 0.00 0.00 86 1010.1
20260906052118 82 202 0.9 1.7 0.00 0.00 0.00 86 1010.1
20260906051614 82 321 1.7 1.7 0.00 0.00 0.00 86 1010.1
20260906051109 82 306 1.7 2.6 0.00 0.00 0.00 86 1010.1
20260906050604 82 135 0.9 2.6 0.00 0.00 0.00 86 1010.2
20260906050059 82 315 0.0 0.9 0.00 0.00 0.00 86 1010.1
20260906045557 82 153 1.7 1.7 0.00 0.00 0.00 86 1010.2
20260906045053 82 131 0.0 1.7 0.00 0.00 0.00 86 1010.6
20260906044549 82 80 0.9 3.5 0.00 0.00 0.00 86 1010.2
20260906044044 82 254 0.9 1.7 0.00 0.00 0.00 87 1010.4
20260906043539 82 153 0.0 2.6 0.00 0.00 0.00 87 1010.4
20260906043036 82 140 0.9 1.7 0.00 0.00 0.00 88 1010.4
20260906042534 82 167 0.0 2.6 0.00 0.00 0.00 88 1010.7
20260906042029 82 177 0.9 1.7 0.00 0.00 0.00 89 1010.5
20260906041525 82 23 0.0 0.9 0.00 0.00 0.00 89 1010.5
20260906041025 82 51 0.0 1.7 0.00 0.00 0.00 90 1010.5
20260906040520 82 175 0.0 1.7 0.00 0.00 0.00 90 1010.4
20260906040016 82 255 0.9 0.9 0.00 0.02 0.02 91 1010.7
20260906035511 82 178 0.9 1.7 0.00 0.02 0.02 91 1010.7
20260906035007 82 20 0.9 0.9 0.00 0.02 0.02 91 1010.6
20260906034506 82 288 0.0 0.9 0.00 0.02 0.02 92 1010.9
20260906034001 82 115 0.0 0.0 0.00 0.02 0.02 92 1010.9
20260906033456 81 158 1.7 1.7 0.00 0.02 0.02 92 1010.8
20260906032952 81 25 0.0 1.7 0.00 0.02 0.02 91 1010.8
20260906032448 81 161 0.0 0.9 0.00 0.02 0.02 91 1010.8
20260906031943 81 174 0.0 0.9 0.00 0.02 0.02 91 1010.8
20260906031438 81 289 3.5 3.5 0.00 0.02 0.02 91 1011.0
20260906030933 81 177 0.0 2.6 0.00 0.02 0.02 90 1010.9
20260906030428 81 241 0.0 2.6 0.00 0.02 0.02 90 1011.1
20260906025922 81 283 1.7 1.7 0.00 0.02 0.02 90 1011.0
20260906025417 81 193 1.7 2.6 0.00 0.02 0.02 90 1011.2
20260906024916 81 278 0.0 1.7 0.00 0.02 0.02 89 1011.1
20260906024415 81 292 0.0 0.9 0.00 0.02 0.02 89 1011.3
20260906023910 81 60 0.9 0.9 0.00 0.02 0.02 89 1011.2
20260906023407 82 70 0.0 1.7 0.00 0.02 0.02 88 1011.0
20260906022906 82 56 0.0 1.7 0.00 0.02 0.02 88 1011.0
20260906022401 82 294 0.0 1.7 0.00 0.02 0.02 88 1010.9
20260906021857 82 70 0.0 1.7 0.00 0.02 0.02 88 1010.9
20260906021356 82 308 1.7 1.7 0.00 0.02 0.02 88 1010.8
20260906020851 82 62 1.7 1.7 0.00 0.02 0.02 87 1010.9
20260906020351 82 210 0.0 3.5 0.00 0.02 0.02 87 1010.9
20260906015846 82 311 0.0 1.7 0.00 0.02 0.02 86 1011.2
20260906015345 82 229 0.0 3.5 0.00 0.02 0.02 86 1010.7
20260906014844 82 246 1.7 1.7 0.00 0.02 0.02 85 1010.5
20260906014339 82 10 0.0 2.6 0.00 0.02 0.02 85 1010.7
20260906013836 82 262 0.9 1.7 0.00 0.02 0.02 84 1010.5
20260906013331 82 70 0.0 4.3 0.00 0.02 0.02 84 1010.4
20260906012826 82 274 0.0 0.9 0.00 0.02 0.02 83 1010.3
20260906012321 82 248 0.0 2.6 0.00 0.02 0.02 83 1010.1
20260906011815 82 259 0.9 0.9 0.00 0.02 0.02 82 1010.1
20260906011315 82 314 0.9 1.7 0.00 0.02 0.02 82 1010.1
20260906010812 82 250 0.0 1.7 0.00 0.02 0.02 81 1010.0
20260906010308 82 31 0.0 1.7 0.00 0.02 0.02 81 1010.0
20260906005802 82 100 0.9 2.6 0.00 0.02 0.02 81 1010.0
20260906005301 82 98 0.0 0.9 0.00 0.02 0.02 80 1010.1
20260906004800 83 110 0.0 1.7 0.00 0.02 0.02 80 1010.0
20260906004255 83 36 0.0 0.9 0.00 0.02 0.02 79 1010.0
20260906003750 83 30 0.0 0.9 0.00 0.02 0.02 79 1009.8
20260906003246 83 26 0.0 0.9 0.00 0.02 0.02 79 1009.7
20260906002741 83 295 0.0 1.7 0.00 0.02 0.02 79 1009.5
20260906002240 83 303 0.0 0.9 0.00 0.02 0.02 79 1009.8
20260906001736 83 73 0.0 1.7 0.00 0.02 0.02 78 1009.4
20260906001231 84 47 0.0 0.0 0.00 0.02 0.02 78 1009.5
20260906000727 84 84 0.0 0.9 0.00 0.02 0.02 78 1009.3
20260906000226 84 56 0.0 0.9 0.00 0.02 0.02 78 1009.4
20260905235721 84 219 1.7 1.7 0.00 0.02 0.02 78 1009.4
20260905235216 84 144 0.0 0.0 0.00 0.02 0.02 77 1009.5
20260905234711 84 70 0.0 0.0 0.00 0.02 0.02 77 1009.3
20260905234207 85 311 0.0 0.9 0.00 0.02 0.02 76 1009.3
20260905233702 85 70 0.0 0.0 0.00 0.02 0.02 75 1009.4
20260905233201 85 218 0.0 1.7 0.00 0.02 0.02 75 1009.5
20260905232656 85 93 0.0 1.7 0.00 0.02 0.02 76 1009.5
20260905232152 86 47 0.0 0.9 0.00 0.02 0.02 75 1009.4
20260905231647 86 36 0.0 1.7 0.00 0.02 0.02 73 1009.5
20260905231143 87 34 0.0 0.9 0.00 0.02 0.02 72 1009.6
20260905230639 87 67 2.6 3.5 0.00 0.02 0.02 71 1009.4
20260905230136 87 114 2.6 2.6 0.00 0.02 0.02 72 1009.7
20260905225631 87 268 1.7 2.6 0.00 0.02 0.02 72 1009.5
20260905225126 87 121 1.7 3.5 0.00 0.02 0.02 73 1009.7
20260905224625 86 46 0.9 2.6 0.00 0.02 0.02 73 1009.7
20260905224125 87 176 0.0 2.6 0.00 0.02 0.02 72 1009.8
20260905223622 87 298 0.0 3.5 0.00 0.02 0.02 72 1010.0
20260905223118 87 271 0.0 3.5 0.00 0.02 0.02 71 1009.9
20260905222619 88 206 0.0 1.7 0.00 0.02 0.02 72 1009.9
20260905222114 88 228 0.0 0.9 0.00 0.02 0.02 72 1010.0
20260905221610 87 48 0.0 1.7 0.00 0.02 0.02 71 1009.8
20260905221106 88 83 1.7 2.6 0.00 0.02 0.02 72 1010.1
20260905220601 87 127 0.0 0.9 0.00 0.02 0.02 72 1010.0
20260905220057 87 51 0.0 2.6 0.00 0.02 0.02 70 1010.1
20260905215556 88 70 0.0 4.3 0.00 0.02 0.02 70 1010.0
20260905215052 89 96 1.7 1.7 0.00 0.02 0.02 70 1009.9
20260905214548 88 286 0.0 2.6 0.00 0.02 0.02 70 1010.0
20260905214043 87 142 0.9 1.7 0.00 0.02 0.02 72 1009.9
20260905213538 87 171 0.0 1.7 0.00 0.02 0.02 73 1010.0
20260905213034 87 170 1.7 1.7 0.00 0.02 0.02 73 1010.1
20260905212528 87 201 0.0 2.6 0.00 0.02 0.02 72 1010.2
20260905212028 87 214 0.9 0.9 0.00 0.02 0.02 73 1010.1